Starlink 11330

operational
NORAD ID: 62011 Int'l Des: 2024-213 Owner: SPXS Country: US Constellation: starlink
LEOCIRCULAR

About Starlink 11330

Description loading...

Live Position

Loading 3D Globe...

Upcoming Passes

Altitude History

Altitude vs Time

uPlot chart will show altitude changes over time

Two-Line Element Set

1 62011U 24213D 25354.94049235 .00186812 00000-0 15087-2 0 9996
2 62011 53.1586 69.6962 0000814 98.7964 261.3146 15.69768568 62545
Epoch: Dec 20, 2025 • Age: 10 hours

Current Status

Altitude 364.9 km
Velocity 7.70 km/s
Sub-Earth Point 52.13°N, 38.26°W
Launch Date Nov 18, 2024
Age 1 years
Type internet

Technical Details

Classification Payload
Mass 960.00 kg
Dry Mass 910.00 kg
Total Mass 960.00 kg
Length 0.30 m
Diameter 4.10 m
Span 29.00 m
Shape Box + pan
Manufacturer SPXS
Bus Type Starlink V2MD
Phase Status In Orbit
Owner/State SPXS/US

Large Constellations

Loading constellations...